Location: Brownlee
(50.7397°N, 106.0159°W)
Time: 06:42:58
(UTC+00:00)

Envisat - Pass Details

Date: 05 December 2022
Orbit: 763 x 765 km, 98.2° (Epoch: 04 February)

Event Time Altitude Azimuth Distance (km) Brightness Sun altitude
Rises 13:04:08 0° 4° (N) 3,247 6.1 -15.7°
Reaches altitude 10° 13:07:02 10° 348° (NNW) 2,316 5.2 -15.3°
Enters shadow 13:09:37 18° 318° (NW) 1,810 4.4 -14.9°
